Tracking 20943 objects as of 16-Jul-2020
HD Live streaming from Space Station
objects crossing your sky now

COSMOS 977

Track COSMOS 977 now!
10-day predictions
COSMOS 977 is classified as:


NORAD ID: 10584
Int'l Code: 1978-005B
Perigee: 1,406.7 km
Apogee: 1,470.4 km
Inclination: 74.0 °
Period: 114.5 minutes
Semi major axis: 7809 km
RCS: 0.6664 m2 (medium)
Launch date: January 10, 1978
Source: Commonwealth of Independent States (former USSR) (CIS)
Launch site: PLESETSK MISSILE AND SPACE COMPLEX (PKMTR)
aabbcc
Your satellite tracking list
Your tracking list is empty




NASA's NSSDC Master Catalog

Two Line Element Set (TLE):
1 10584U 78005B   20197.74974519 +.00000002 +00000-0 +10686-3 0  9999
2 10584 074.0317 016.1910 0040769 162.1733 209.7189 12.57945795939527
Source of the keplerian elements: AFSPC